This is the latest recevied weather packets stored in our database for station/object KQ4LLM. If no packets are shown the sender has not sent any weather packets the latest 10 day(s).
| Time | Temp. | Humidity | Pressure | Rain* | Wind** | Luminosity | Snow |
|---|---|---|---|---|---|---|---|
| 1787855254 | 29.44° C | 65% | - | 0 mm | - | - | - |
| 1787854950 | 30° C | 67% | - | 0 mm | - | - | - |
| 1787854645 | 29.44° C | 72% | - | 0 mm | - | - | - |
| 1787854339 | 28.89° C | 73% | - | 0 mm | - | - | - |
| 1787854034 | 28.89° C | 72% | - | 0 mm | - | - | - |
| 1787853728 | 28.89° C | 71% | - | 0 mm | - | - | - |
| 1787853427 | 28.89° C | 72% | - | 0 mm | - | - | - |
| 1787853126 | 28.89° C | 72% | - | 0 mm | - | - | - |
| 1787852821 | 28.33° C | 74% | - | 0 mm | - | - | - |
| 1787852521 | 28.33° C | 74% | - | 0 mm | - | - | - |
| 1787852215 | 27.78° C | 75% | - | 0 mm | - | - | - |
| 1787851915 | 28.33° C | 74% | - | 0 mm | - | - | - |
| 1787851608 | 28.33° C | 73% | - | 0 mm | - | - | - |
| 1787851303 | 28.33° C | 73% | - | 0 mm | - | - | - |
| 1787850998 | 28.89° C | 73% | - | 0 mm | - | - | - |
| 1787850694 | 28.89° C | 73% | - | 0 mm | - | - | - |
| 1787850390 | 28.33° C | 72% | - | 0 mm | - | - | - |
| 1787850085 | 28.33° C | 74% | - | 0 mm | - | - | - |
| 1787849784 | 28.89° C | 72% | - | 0 mm | - | - | - |
| 1787849480 | 28.89° C | 73% | - | 0 mm | - | - | - |
| 1787849178 | 28.89° C | 74% | - | 0 mm | - | - | - |
| 1787848877 | 28.33° C | 74% | - | 0 mm | - | - | - |
| 1787848573 | 27.78° C | 75% | - | 0 mm | - | - | - |
| 1787848272 | 27.78° C | 76% | - | 0 mm | - | - | - |
| 1787847968 | 27.78° C | 77% | - | 0 mm | - | - | - |
* Rain latest hour (hover to see other rain measurements)
** Current wind speed in m/s (hover to see current wind gust speed)